Regional Weather Roundup
Issued by NWS Goodland, KS

Home | Current Version | Previous Version | Text Only | Print | Product List | Glossary Off
Versions: 1 2 3 4 5 6 7 8 9 10 11 12 13 14 15 16 17 18 19 20 21 22 23 24 25 26 27 28 29 30 31 32 33 34 35 36 37 38 39 40 41 42 43 44 45 46 47 48 49 50

000
ASUS43 KGLD 041459
RWRGLD

GOODLAND FORECAST AREA HOURLY WEATHER ROUNDUP
NATIONAL WEATHER SERVICE GOODLAND KS
800 AM MST SUN DEC 04 2016

...OFFICIAL OBSERVATIONS...

CITY           SKY/WX    TMP DP  RH WIND       PRES   REMARKS
GOODLAND KS    SUNNY     27  13  55 W9        30.05R
HILL CITY KS   SUNNY     28  21  75 W10       30.06R WCI  19
IMPERIAL NEB   CLEAR     28  15  58 W10       30.03R WCI  19
MCCOOK NEB     SUNNY     26  18  71 W9        30.04R
AKRON CO       CLOUDY    24  10  55 SW8       30.03R
BURLINGTON CO  CLEAR     22  12  65 W9        30.06R
LIMON CO       CLOUDY    14   9  80 N3        30.05S
$$

...UNOFFICIAL OBSERVATIONS...

CITY           SKY/WX    TMP DP  RH WIND       PRES   REMARKS
COLBY KS       SUNNY     27  19  74 W13       30.06S WCI  16
LENORA KS        N/A     28  32 100 MISG        N/A
NORTON KS      SUNNY     28  18  64 W7        30.03R
SHARON SPRINGS   N/A     23  16  74 W8          N/A
TRENTON NEB      N/A     28  32 100 NW5         N/A
KIT CARSON CO    N/A     13   7  75 CALM        N/A
YUMA CO        FAIR      23  12  63 W8        30.03S
$$



USA.gov is the U.S. government's official web portal to all federal, state and local government web resources and services.